Location: ???? ????
(41.4149°N, 22.8816°E)
Time: 11:43:19
(UTC+00:00)

Cosmos 1674 Rocket - Pass Details

Date: 14 July 2020
Orbit: 602 x 631 km, 82.5° (Epoch: 09 August)

Event Time Altitude Azimuth Distance (km) Brightness Sun altitude
Rises 01:05:28 0° 353° (N) 2,881 7.7 -17.9°
Reaches altitude 10° 01:07:42 10° 355° (N) 1,968 6.8 -17.6°
Maximum altitude 01:12:03 78° 81° (E) 624 3.6 -17.1°
Enters shadow 01:15:15 18° 167° (SSE) 1,503 5.2 -16.8°
